| time (UTC) | temp F | wind direction | speed MPH | gust MPH | rain 1hr in | rain 24hr in | rain mn in | humidity % | barometer mb |
| 20260831010214 | 71 | 172 | 2.0 | 6.0 | 0.00 | 0.00 | 0.00 | 28 | 1014.9 |
| 20260831005314 | 72 | 190 | 4.0 | 6.0 | 0.00 | 0.00 | 0.00 | 28 | 1015.0 |
| 20260831004415 | 72 | 187 | 4.0 | 8.0 | 0.00 | 0.00 | 0.00 | 27 | 1014.9 |
| 20260831003514 | 72 | 189 | 3.0 | 10.0 | 0.00 | 0.00 | 0.00 | 28 | 1014.9 |
| 20260831001715 | 72 | 170 | 2.0 | 7.0 | 0.00 | 0.00 | 0.00 | 28 | 1014.9 |
| 20260831000814 | 72 | 175 | 2.0 | 8.0 | 0.00 | 0.00 | 0.00 | 28 | 1014.9 |
| 20260830235014 | 71 | 189 | 4.0 | 10.0 | 0.00 | 0.00 | 0.00 | 28 | 1014.8 |
| 20260830234115 | 71 | 187 | 2.0 | 10.0 | 0.00 | 0.00 | 0.00 | 29 | 1015.0 |
| 20260830233215 | 71 | 173 | 3.0 | 10.0 | 0.00 | 0.00 | 0.00 | 29 | 1015.0 |
| 20260830232314 | 71 | 179 | 5.0 | 12.0 | 0.00 | 0.00 | 0.00 | 28 | 1015.0 |
| 20260830231414 | 72 | 186 | 7.0 | 12.0 | 0.00 | 0.00 | 0.00 | 28 | 1015.1 |
| 20260830225614 | 71 | 193 | 6.0 | 13.0 | 0.00 | 0.00 | 0.00 | 29 | 1015.2 |
| 20260830224714 | 71 | 217 | 4.0 | 15.0 | 0.00 | 0.00 | 0.00 | 29 | 1015.2 |
| 20260830223814 | 71 | 196 | 7.0 | 15.0 | 0.00 | 0.00 | 0.00 | 28 | 1015.2 |
| 20260830222914 | 72 | 200 | 8.0 | 14.0 | 0.00 | 0.00 | 0.00 | 28 | 1015.2 |
| 20260830222014 | 72 | 172 | 8.0 | 16.0 | 0.00 | 0.00 | 0.00 | 28 | 1015.2 |
| 20260830221114 | 72 | 113 | 4.0 | 8.0 | 0.00 | 0.00 | 0.00 | 28 | 1015.3 |
| 20260830220214 | 72 | 139 | 5.0 | 8.0 | 0.00 | 0.00 | 0.00 | 28 | 1015.2 |
| 20260830214414 | 71 | 169 | 4.0 | 7.0 | 0.00 | 0.00 | 0.00 | 30 | 1015.5 |
| 20260830212614 | 71 | 166 | 4.0 | 13.0 | 0.00 | 0.00 | 0.00 | 31 | 1015.6 |
| 20260830211714 | 71 | 171 | 4.0 | 13.0 | 0.00 | 0.00 | 0.00 | 30 | 1015.5 |
| 20260830205914 | 71 | 176 | 4.0 | 14.0 | 0.00 | 0.00 | 0.00 | 31 | 1015.5 |
| 20260830205014 | 71 | 194 | 4.0 | 14.0 | 0.00 | 0.00 | 0.00 | 31 | 1015.5 |
| 20260830204114 | 72 | 167 | 8.0 | 15.0 | 0.00 | 0.00 | 0.00 | 29 | 1015.4 |
| 20260830203214 | 73 | 189 | 11.0 | 17.0 | 0.00 | 0.00 | 0.00 | 29 | 1015.5 |
| 20260830202314 | 72 | 194 | 10.0 | 19.0 | 0.00 | 0.00 | 0.00 | 29 | 1015.6 |
| 20260830200514 | 72 | 185 | 7.0 | 22.0 | 0.00 | 0.00 | 0.00 | 30 | 1015.7 |
| 20260830195614 | 71 | 189 | 6.0 | 17.0 | 0.00 | 0.00 | 0.00 | 32 | 1015.4 |
| 20260830194714 | 72 | 178 | 11.0 | 16.0 | 0.00 | 0.00 | 0.00 | 31 | 1015.5 |
| 20260830193814 | 72 | 172 | 7.0 | 15.0 | 0.00 | 0.00 | 0.00 | 31 | 1015.4 |
| 20260830192914 | 71 | 174 | 7.0 | 17.0 | 0.00 | 0.00 | 0.00 | 32 | 1015.4 |
| 20260830192014 | 70 | 178 | 6.0 | 17.0 | 0.00 | 0.00 | 0.00 | 34 | 1015.4 |
| 20260830191114 | 68 | 175 | 9.0 | 18.0 | 0.00 | 0.00 | 0.00 | 37 | 1015.6 |
| 20260830190214 | 68 | 199 | 8.0 | 15.0 | 0.00 | 0.00 | 0.00 | 37 | 1015.7 |
| 20260830185314 | 67 | 187 | 7.0 | 17.0 | 0.00 | 0.00 | 0.00 | 39 | 1015.8 |
| 20260830183514 | 68 | 190 | 8.0 | 17.0 | 0.00 | 0.00 | 0.00 | 40 | 1015.8 |
| 20260830181714 | 68 | 169 | 8.0 | 15.0 | 0.00 | 0.00 | 0.00 | 39 | 1015.9 |
| 20260830180814 | 68 | 181 | 9.0 | 16.0 | 0.00 | 0.00 | 0.00 | 41 | 1016.1 |
| 20260830175914 | 68 | 202 | 6.0 | 15.0 | 0.00 | 0.00 | 0.00 | 41 | 1016.2 |
| 20260830174114 | 66 | 201 | 8.0 | 15.0 | 0.00 | 0.00 | 0.00 | 47 | 1016.2 |
| 20260830173214 | 63 | 173 | 7.0 | 15.0 | 0.00 | 0.00 | 0.00 | 50 | 1016.1 |
| 20260830172313 | 63 | 203 | 8.0 | 15.0 | 0.00 | 0.00 | 0.00 | 50 | 1016.2 |
| 20260830171414 | 63 | 201 | 4.0 | 16.0 | 0.00 | 0.00 | 0.00 | 50 | 1016.2 |
| 20260830170514 | 64 | 207 | 11.0 | 16.0 | 0.00 | 0.00 | 0.00 | 47 | 1016.1 |
| 20260830165614 | 64 | 212 | 8.0 | 15.0 | 0.00 | 0.00 | 0.00 | 50 | 1016.2 |
| 20260830163813 | 63 | 191 | 9.0 | 17.0 | 0.00 | 0.00 | 0.00 | 51 | 1016.2 |
| 20260830161113 | 61 | 187 | 6.0 | 15.0 | 0.00 | 0.00 | 0.00 | 59 | 1016.2 |
| 20260830160213 | 60 | 173 | 5.0 | 13.0 | 0.00 | 0.00 | 0.00 | 61 | 1016.2 |
| 20260830155314 | 60 | 176 | 8.0 | 14.0 | 0.00 | 0.00 | 0.00 | 63 | 1016.3 |
| 20260830154413 | 59 | 184 | 5.0 | 13.0 | 0.00 | 0.00 | 0.00 | 65 | 1016.2 |
| 20260830153513 | 59 | 201 | 9.0 | 13.0 | 0.00 | 0.00 | 0.00 | 66 | 1016.3 |
| 20260830151713 | 58 | 193 | 5.0 | 14.0 | 0.00 | 0.00 | 0.00 | 67 | 1016.2 |
| 20260830150813 | 58 | 182 | 6.0 | 11.0 | 0.00 | 0.00 | 0.00 | 69 | 1016.1 |
| 20260830145913 | 56 | 175 | 8.0 | 11.0 | 0.00 | 0.00 | 0.00 | 73 | 1015.9 |
| 20260830145013 | 55 | 203 | 2.0 | 7.0 | 0.00 | 0.00 | 0.00 | 76 | 1015.9 |
| 20260830143213 | 54 | 181 | 3.0 | 6.0 | 0.00 | 0.00 | 0.00 | 81 | 1016.0 |
| 20260830140513 | 49 | 318 | 3.0 | 4.0 | 0.00 | 0.00 | 0.00 | 89 | 1015.9 |
| 20260830135613 | 49 | 317 | 3.0 | 4.0 | 0.00 | 0.00 | 0.00 | 89 | 1015.7 |
| 20260830134713 | 49 | 331 | 2.0 | 5.0 | 0.00 | 0.00 | 0.00 | 89 | 1015.7 |
| 20260830133813 | 49 | 318 | 4.0 | 5.0 | 0.00 | 0.00 | 0.00 | 88 | 1015.6 |
| 20260830132913 | 49 | 334 | 4.0 | 6.0 | 0.00 | 0.00 | 0.00 | 88 | 1015.6 |
| 20260830132013 | 49 | 326 | 4.0 | 5.0 | 0.00 | 0.00 | 0.00 | 88 | 1015.5 |
| 20260830130213 | 49 | 316 | 3.0 | 4.0 | 0.00 | 0.00 | 0.00 | 88 | 1015.4 |
| 20260830125313 | 49 | 314 | 4.0 | 4.0 | 0.00 | 0.00 | 0.00 | 88 | 1015.4 |
| 20260830124413 | 50 | 314 | 3.0 | 4.0 | 0.00 | 0.00 | 0.00 | 87 | 1015.4 |
| 20260830123513 | 50 | 314 | 3.0 | 4.0 | 0.00 | 0.00 | 0.00 | 87 | 1015.3 |
| 20260830122613 | 50 | 314 | 4.0 | 4.0 | 0.00 | 0.00 | 0.00 | 87 | 1015.4 |
| 20260830121713 | 50 | 314 | 2.0 | 4.0 | 0.00 | 0.00 | 0.00 | 87 | 1015.3 |
| 20260830120813 | 50 | 314 | 2.0 | 4.0 | 0.00 | 0.00 | 0.00 | 86 | 1015.3 |
| 20260830114113 | 50 | 315 | 3.0 | 4.0 | 0.00 | 0.00 | 0.00 | 85 | 1015.2 |
| 20260830113213 | 50 | 343 | 2.0 | 3.0 | 0.00 | 0.00 | 0.00 | 85 | 1015.2 |
| 20260830112313 | 50 | 40 | 1.0 | 2.0 | 0.00 | 0.00 | 0.00 | 85 | 1015.2 |
| 20260830111413 | 50 | 340 | 1.0 | 4.0 | 0.00 | 0.00 | 0.00 | 85 | 1015.2 |
| 20260830110513 | 50 | 314 | 3.0 | 4.0 | 0.00 | 0.00 | 0.00 | 85 | 1015.4 |
| 20260830105613 | 50 | 314 | 3.0 | 4.0 | 0.00 | 0.00 | 0.00 | 85 | 1015.4 |
| 20260830104713 | 50 | 317 | 4.0 | 5.0 | 0.00 | 0.00 | 0.00 | 85 | 1015.5 |
| 20260830103813 | 50 | 328 | 4.0 | 4.0 | 0.00 | 0.00 | 0.00 | 84 | 1015.4 |
| 20260830102913 | 50 | 348 | 2.0 | 4.0 | 0.00 | 0.00 | 0.00 | 84 | 1015.5 |
| 20260830102013 | 50 | 321 | 3.0 | 4.0 | 0.00 | 0.00 | 0.00 | 83 | 1015.4 |
| 20260830101113 | 50 | 331 | 2.0 | 4.0 | 0.00 | 0.00 | 0.00 | 83 | 1015.5 |
| 20260830100213 | 50 | 334 | 3.0 | 4.0 | 0.00 | 0.00 | 0.00 | 83 | 1015.4 |
| 20260830095313 | 50 | 315 | 3.0 | 4.0 | 0.00 | 0.00 | 0.00 | 82 | 1015.2 |
| 20260830094413 | 50 | 345 | 2.0 | 4.0 | 0.00 | 0.00 | 0.00 | 82 | 1015.3 |
| 20260830093513 | 50 | 330 | 3.0 | 5.0 | 0.00 | 0.00 | 0.00 | 82 | 1015.2 |
| 20260830092613 | 50 | 314 | 3.0 | 5.0 | 0.00 | 0.00 | 0.00 | 82 | 1015.2 |
| 20260830091713 | 50 | 321 | 4.0 | 4.0 | 0.00 | 0.00 | 0.00 | 82 | 1015.3 |
| 20260830085912 | 49 | 314 | 4.0 | 4.0 | 0.00 | 0.00 | 0.00 | 81 | 1015.2 |
| 20260830085013 | 49 | 314 | 3.0 | 5.0 | 0.00 | 0.00 | 0.00 | 81 | 1015.1 |
| 20260830084113 | 49 | 314 | 4.0 | 5.0 | 0.00 | 0.00 | 0.00 | 81 | 1015.2 |
| 20260830083212 | 49 | 317 | 3.0 | 5.0 | 0.00 | 0.00 | 0.00 | 81 | 1015.3 |
| 20260830082312 | 49 | 320 | 4.0 | 5.0 | 0.00 | 0.00 | 0.00 | 81 | 1015.1 |
| 20260830080513 | 48 | 319 | 4.0 | 6.0 | 0.00 | 0.00 | 0.00 | 81 | 1015.0 |
| 20260830075612 | 48 | 314 | 4.0 | 6.0 | 0.00 | 0.00 | 0.00 | 81 | 1015.0 |
| 20260830074713 | 48 | 314 | 5.0 | 7.0 | 0.00 | 0.00 | 0.00 | 81 | 1014.9 |
| 20260830072912 | 49 | 326 | 4.0 | 6.0 | 0.00 | 0.00 | 0.00 | 80 | 1014.9 |
| 20260830071112 | 50 | 316 | 4.0 | 5.0 | 0.00 | 0.00 | 0.00 | 78 | 1014.7 |
| 20260830070212 | 51 | 314 | 4.0 | 6.0 | 0.00 | 0.00 | 0.00 | 77 | 1014.7 |
| 20260830064412 | 52 | 316 | 2.0 | 5.0 | 0.00 | 0.00 | 0.00 | 75 | 1014.7 |
| 20260830062612 | 52 | 326 | 4.0 | 5.0 | 0.00 | 0.00 | 0.00 | 74 | 1015.1 |
| 20260830061712 | 52 | 329 | 4.0 | 5.0 | 0.00 | 0.00 | 0.00 | 73 | 1014.9 |
| 20260830060812 | 52 | 318 | 2.0 | 6.0 | 0.00 | 0.00 | 0.00 | 72 | 1014.9 |
| 20260830055912 | 53 | 336 | 4.0 | 7.0 | 0.00 | 0.00 | 0.00 | 71 | 1015.0 |
| 20260830055012 | 53 | 326 | 4.0 | 7.0 | 0.00 | 0.00 | 0.00 | 70 | 1015.0 |
| 20260830054112 | 54 | 319 | 4.0 | 7.0 | 0.00 | 0.00 | 0.00 | 68 | 1014.9 |
| 20260830053212 | 54 | 320 | 4.0 | 7.0 | 0.00 | 0.00 | 0.00 | 65 | 1014.8 |
| 20260830052312 | 56 | 327 | 3.0 | 5.0 | 0.00 | 0.00 | 0.00 | 61 | 1014.9 |
| 20260830051412 | 57 | 167 | 1.0 | 8.0 | 0.00 | 0.00 | 0.00 | 60 | 1014.9 |
| 20260830045612 | 56 | 312 | 1.0 | 4.0 | 0.00 | 0.00 | 0.00 | 61 | 1015.2 |
| 20260830043812 | 56 | 293 | 3.0 | 5.0 | 0.00 | 0.00 | 0.00 | 61 | 1015.1 |
| 20260830042912 | 56 | 346 | 1.0 | 7.0 | 0.00 | 0.00 | 0.00 | 62 | 1014.9 |
| 20260830042012 | 56 | 298 | 3.0 | 7.0 | 0.00 | 0.00 | 0.00 | 60 | 1014.8 |
| 20260830041112 | 57 | 196 | 2.0 | 10.0 | 0.00 | 0.00 | 0.00 | 58 | 1014.9 |
| 20260830040212 | 58 | 158 | 4.0 | 13.0 | 0.00 | 0.00 | 0.00 | 57 | 1014.8 |
| 20260830035312 | 58 | 185 | 5.0 | 9.0 | 0.00 | 0.00 | 0.00 | 56 | 1014.6 |
| 20260830034412 | 58 | 185 | 0.0 | 8.0 | 0.00 | 0.00 | 0.00 | 55 | 1014.5 |
| 20260830033512 | 58 | 186 | 3.0 | 13.0 | 0.00 | 0.00 | 0.00 | 54 | 1014.5 |
| 20260830031712 | 58 | 191 | 5.0 | 14.0 | 0.00 | 0.00 | 0.00 | 52 | 1014.3 |
| 20260830030812 | 59 | 200 | 9.0 | 17.0 | 0.00 | 0.00 | 0.00 | 51 | 1014.2 |
| 20260830025912 | 59 | 196 | 4.0 | 12.0 | 0.00 | 0.00 | 0.00 | 49 | 1014.0 |
| 20260830024112 | 60 | 220 | 2.0 | 11.0 | 0.00 | 0.00 | 0.00 | 46 | 1014.0 |
| 20260830022312 | 60 | 215 | 6.0 | 13.0 | 0.00 | 0.00 | 0.00 | 47 | 1013.9 |
| 20260830021412 | 60 | 212 | 3.0 | 10.0 | 0.00 | 0.00 | 0.00 | 46 | 1013.7 |
| 20260830020512 | 60 | 197 | 6.0 | 13.0 | 0.00 | 0.00 | 0.00 | 47 | 1013.7 |
| 20260830015612 | 61 | 206 | 8.0 | 12.0 | 0.00 | 0.00 | 0.00 | 46 | 1013.7 |
| 20260830014712 | 61 | 201 | 5.0 | 15.0 | 0.00 | 0.00 | 0.00 | 46 | 1013.5 |
| 20260830013812 | 61 | 198 | 6.0 | 11.0 | 0.00 | 0.00 | 0.00 | 44 | 1013.6 |
| 20260830012912 | 61 | 208 | 4.0 | 11.0 | 0.00 | 0.00 | 0.00 | 43 | 1013.6 |
| 20260830011112 | 62 | 203 | 7.0 | 11.0 | 0.00 | 0.00 | 0.00 | 42 | 1013.5 |